| time (UTC) | temp F | wind direction | speed MPH | gust MPH | rain 1hr in | rain 24hr in | rain mn in | humidity % | barometer mb |
| 20260904112233 | 68 | 67 | 0.0 | 0.0 | 0.00 | 0.03 | 0.03 | 97 | 1014.9 |
| 20260904111729 | 68 | 39 | 1.0 | 1.0 | 0.00 | 0.03 | 0.03 | 97 | 1014.9 |
| 20260904111225 | 68 | 63 | 1.0 | 1.0 | 0.00 | 0.03 | 0.03 | 97 | 1014.7 |
| 20260904110720 | 68 | 69 | 0.0 | 0.0 | 0.00 | 0.03 | 0.03 | 97 | 1014.7 |
| 20260904110219 | 68 | 82 | 0.0 | 1.0 | 0.00 | 0.03 | 0.03 | 97 | 1014.7 |
| 20260904105714 | 68 | 78 | 0.0 | 0.0 | 0.00 | 0.03 | 0.03 | 97 | 1014.7 |
| 20260904105209 | 68 | 72 | 0.0 | 0.0 | 0.00 | 0.03 | 0.03 | 97 | 1014.5 |
| 20260904104704 | 68 | 74 | 0.0 | 0.0 | 0.00 | 0.03 | 0.03 | 97 | 1014.3 |
| 20260904104200 | 68 | 79 | 0.0 | 0.0 | 0.00 | 0.03 | 0.03 | 97 | 1014.6 |
| 20260904103656 | 68 | 71 | 1.0 | 1.0 | 0.00 | 0.03 | 0.03 | 97 | 1014.5 |
| 20260904103151 | 68 | 71 | 2.0 | 2.0 | 0.00 | 0.03 | 0.03 | 96 | 1014.5 |
| 20260904102647 | 68 | 50 | 3.0 | 5.0 | 0.00 | 0.03 | 0.03 | 96 | 1014.6 |
| 20260904102142 | 68 | 74 | 1.0 | 1.0 | 0.05 | 0.03 | 0.03 | 96 | 1014.8 |
| 20260904101639 | 69 | 74 | 3.0 | 3.0 | 0.05 | 0.03 | 0.03 | 96 | 1015.1 |
| 20260904101134 | 69 | 77 | 3.0 | 3.0 | 0.00 | 0.02 | 0.02 | 95 | 1015.1 |
| 20260904100630 | 69 | 26 | 4.0 | 5.0 | 0.00 | 0.02 | 0.02 | 95 | 1015.3 |
| 20260904100125 | 70 | 84 | 5.0 | 7.0 | 0.00 | 0.02 | 0.02 | 93 | 1015.3 |
| 20260904095620 | 70 | 90 | 5.0 | 7.0 | 0.00 | 0.02 | 0.02 | 93 | 1015.4 |
| 20260904095120 | 71 | 26 | 3.0 | 6.0 | 0.00 | 0.02 | 0.02 | 94 | 1015.3 |
| 20260904094615 | 71 | 54 | 6.0 | 7.0 | 0.00 | 0.02 | 0.02 | 95 | 1014.7 |
| 20260904094109 | 71 | 73 | 5.0 | 8.0 | 0.00 | 0.02 | 0.02 | 96 | 1014.9 |
| 20260904093607 | 71 | 37 | 8.0 | 11.0 | 0.00 | 0.02 | 0.02 | 97 | 1015.6 |
| 20260904093101 | 71 | 77 | 4.0 | 5.0 | 0.00 | 0.02 | 0.02 | 98 | 1015.7 |
| 20260904092557 | 72 | 68 | 1.0 | 2.0 | 0.00 | 0.02 | 0.02 | 98 | 1015.0 |
| 20260904092053 | 72 | 42 | 1.0 | 2.0 | 0.07 | 0.02 | 0.02 | 98 | 1014.9 |
| 20260904091549 | 72 | 74 | 1.0 | 1.0 | 0.07 | 0.02 | 0.02 | 98 | 1014.4 |
| 20260904091048 | 72 | 70 | 0.0 | 0.0 | 0.07 | 0.02 | 0.02 | 98 | 1014.3 |
| 20260904090544 | 72 | 79 | 0.0 | 0.0 | 0.00 | 0.01 | 0.01 | 98 | 1014.0 |
| 20260904090040 | 72 | 87 | 0.0 | 0.0 | 0.00 | 0.01 | 0.01 | 98 | 1014.2 |
| 20260904085539 | 72 | 76 | 0.0 | 0.0 | 0.00 | 0.01 | 0.01 | 97 | 1014.5 |
| 20260904085034 | 72 | 74 | 0.0 | 0.0 | 0.00 | 0.01 | 0.01 | 98 | 1014.4 |
| 20260904084530 | 72 | 70 | 0.0 | 0.0 | 0.00 | 0.01 | 0.01 | 97 | 1014.5 |
| 20260904084026 | 72 | 60 | 1.0 | 2.0 | 0.00 | 0.01 | 0.01 | 97 | 1014.2 |
| 20260904083522 | 72 | 43 | 1.0 | 1.0 | 0.00 | 0.01 | 0.01 | 97 | 1013.5 |
| 20260904083017 | 72 | 79 | 0.0 | 0.0 | 0.00 | 0.01 | 0.01 | 97 | 1013.4 |
| 20260904082512 | 72 | 83 | 0.0 | 0.0 | 0.00 | 0.01 | 0.01 | 97 | 1013.4 |
| 20260904082008 | 72 | 84 | 0.0 | 0.0 | 0.00 | 0.01 | 0.01 | 97 | 1013.2 |
| 20260904081503 | 72 | 103 | 0.0 | 0.0 | 0.00 | 0.01 | 0.01 | 97 | 1013.6 |
| 20260904080958 | 72 | 88 | 0.0 | 0.0 | 0.00 | 0.01 | 0.01 | 97 | 1013.7 |
| 20260904080454 | 72 | 85 | 0.0 | 0.0 | 0.00 | 0.01 | 0.01 | 97 | 1013.9 |
| 20260904075949 | 72 | 82 | 0.0 | 0.0 | 0.05 | 0.01 | 0.01 | 97 | 1013.9 |
| 20260904075445 | 72 | 84 | 0.0 | 0.0 | 0.05 | 0.01 | 0.01 | 97 | 1013.7 |
| 20260904074944 | 72 | 73 | 0.0 | 0.0 | 0.00 | 0.00 | 0.00 | 97 | 1014.1 |
| 20260904074440 | 72 | 90 | 0.0 | 0.0 | 0.00 | 0.00 | 0.00 | 97 | 1013.7 |
| 20260904073934 | 72 | 75 | 0.0 | 0.0 | 0.00 | 0.00 | 0.00 | 97 | 1014.3 |
| 20260904073430 | 72 | 81 | 0.0 | 0.0 | 0.00 | 0.00 | 0.00 | 97 | 1014.2 |
| 20260904072925 | 72 | 78 | 0.0 | 1.0 | 0.00 | 0.00 | 0.00 | 97 | 1014.6 |
| 20260904072421 | 72 | 75 | 0.0 | 1.0 | 0.00 | 0.00 | 0.00 | 97 | 1014.6 |
| 20260904071916 | 72 | 72 | 0.0 | 0.0 | 0.00 | 0.00 | 0.00 | 97 | 1014.7 |
| 20260904071412 | 72 | 59 | 1.0 | 1.0 | 0.00 | 0.00 | 0.00 | 97 | 1014.4 |
| 20260904070906 | 72 | 74 | 0.0 | 0.0 | 0.00 | 0.00 | 0.00 | 97 | 1014.7 |
| 20260904070405 | 72 | 59 | 1.0 | 1.0 | 0.00 | 0.00 | 0.00 | 97 | 1014.8 |
| 20260904065905 | 72 | 78 | 0.0 | 0.0 | 0.00 | 0.00 | 0.00 | 97 | 1014.8 |
| 20260904065401 | 72 | 75 | 0.0 | 0.0 | 0.00 | 0.00 | 0.00 | 97 | 1014.9 |
| 20260904064901 | 72 | 54 | 1.0 | 1.0 | 0.00 | 0.00 | 0.00 | 97 | 1015.1 |
| 20260904064357 | 72 | 62 | 1.0 | 1.0 | 0.00 | 0.00 | 0.00 | 97 | 1015.1 |
| 20260904063852 | 72 | 64 | 0.0 | 0.0 | 0.00 | 0.00 | 0.00 | 97 | 1014.7 |
| 20260904063349 | 72 | 35 | 1.0 | 2.0 | 0.00 | 0.00 | 0.00 | 97 | 1014.8 |
| 20260904062844 | 72 | 57 | 1.0 | 1.0 | 0.00 | 0.00 | 0.00 | 96 | 1014.7 |
| 20260904062340 | 72 | 49 | 0.0 | 1.0 | 0.00 | 0.00 | 0.00 | 96 | 1014.6 |
| 20260904061836 | 72 | 64 | 1.0 | 1.0 | 0.00 | 0.00 | 0.00 | 96 | 1014.8 |
| 20260904061332 | 71 | 43 | 3.0 | 5.0 | 0.00 | 0.00 | 0.00 | 96 | 1015.1 |
| 20260904060827 | 72 | 36 | 0.0 | 0.0 | 0.00 | 0.00 | 0.00 | 96 | 1014.4 |
| 20260904060324 | 72 | 76 | 0.0 | 0.0 | 0.00 | 0.00 | 0.00 | 96 | 1014.7 |
| 20260904055818 | 72 | 76 | 0.0 | 0.0 | 0.00 | 0.00 | 0.00 | 96 | 1014.8 |
| 20260904055314 | 72 | 72 | 0.0 | 0.0 | 0.00 | 0.00 | 0.00 | 95 | 1015.0 |
| 20260904054809 | 72 | 74 | 0.0 | 0.0 | 0.00 | 0.00 | 0.00 | 95 | 1014.8 |
| 20260904054305 | 72 | 76 | 0.0 | 0.0 | 0.00 | 0.00 | 0.00 | 95 | 1014.9 |
| 20260904053759 | 72 | 59 | 1.0 | 1.0 | 0.00 | 0.00 | 0.00 | 95 | 1015.1 |
| 20260904053254 | 72 | 74 | 0.0 | 1.0 | 0.00 | 0.00 | 0.00 | 95 | 1015.4 |
| 20260904052750 | 72 | 74 | 0.0 | 0.0 | 0.00 | 0.00 | 0.00 | 95 | 1015.3 |
| 20260904052246 | 72 | 40 | 0.0 | 1.0 | 0.00 | 0.00 | 0.00 | 95 | 1015.1 |
| 20260904051743 | 72 | 77 | 0.0 | 0.0 | 0.00 | 0.00 | 0.00 | 96 | 1015.3 |
| 20260904051243 | 72 | 55 | 1.0 | 1.0 | 0.00 | 0.00 | 0.00 | 96 | 1015.2 |
| 20260904050738 | 72 | 79 | 0.0 | 0.0 | 0.00 | 0.00 | 0.00 | 96 | 1014.8 |
| 20260904050235 | 72 | 109 | 0.0 | 1.0 | 0.00 | 0.00 | 0.00 | 96 | 1015.4 |
| 20260904045729 | 72 | 84 | 0.0 | 0.0 | 0.00 | 0.27 | 0.27 | 96 | 1015.3 |
| 20260904045224 | 72 | 140 | 0.0 | 0.0 | 0.00 | 0.27 | 0.27 | 96 | 1015.0 |
| 20260904044718 | 72 | 83 | 0.0 | 0.0 | 0.00 | 0.27 | 0.27 | 96 | 1015.2 |
| 20260904044215 | 72 | 101 | 0.0 | 0.0 | 0.00 | 0.27 | 0.27 | 96 | 1015.3 |
| 20260904043711 | 72 | 73 | 0.0 | 0.0 | 0.00 | 0.27 | 0.27 | 97 | 1015.7 |
| 20260904043207 | 72 | 71 | 0.0 | 0.0 | 0.00 | 0.27 | 0.27 | 97 | 1015.7 |
| 20260904042703 | 72 | 74 | 0.0 | 0.0 | 0.00 | 0.27 | 0.27 | 97 | 1015.2 |
| 20260904042159 | 72 | 88 | 0.0 | 0.0 | 0.00 | 0.27 | 0.27 | 97 | 1015.6 |
| 20260904041653 | 72 | 81 | 0.0 | 0.0 | 0.00 | 0.27 | 0.27 | 97 | 1015.4 |
| 20260904041150 | 72 | 80 | 0.0 | 0.0 | 0.00 | 0.27 | 0.27 | 97 | 1015.9 |
| 20260904040645 | 72 | 80 | 0.0 | 0.0 | 0.00 | 0.27 | 0.27 | 97 | 1015.9 |
| 20260904040141 | 71 | 79 | 0.0 | 0.0 | 0.00 | 0.27 | 0.27 | 97 | 1015.6 |
| 20260904035636 | 71 | 80 | 0.0 | 0.0 | 0.00 | 0.27 | 0.27 | 97 | 1015.7 |
| 20260904035137 | 72 | 80 | 0.0 | 0.0 | 0.00 | 0.27 | 0.27 | 97 | 1015.2 |
| 20260904034636 | 72 | 85 | 0.0 | 0.0 | 0.00 | 0.27 | 0.27 | 97 | 1015.6 |
| 20260904034132 | 72 | 80 | 1.0 | 1.0 | 0.00 | 0.27 | 0.27 | 97 | 1015.6 |
| 20260904033627 | 72 | 86 | 1.0 | 1.0 | 0.00 | 0.27 | 0.27 | 97 | 1015.8 |
| 20260904033125 | 72 | 83 | 0.0 | 0.0 | 0.00 | 0.27 | 0.27 | 96 | 1015.7 |
| 20260904032620 | 72 | 84 | 0.0 | 0.0 | 0.00 | 0.27 | 0.27 | 96 | 1015.7 |
| 20260904032119 | 72 | 80 | 0.0 | 0.0 | 0.00 | 0.27 | 0.27 | 96 | 1015.9 |
| 20260904031618 | 72 | 80 | 0.0 | 0.0 | 0.00 | 0.27 | 0.27 | 96 | 1015.8 |
| 20260904031114 | 72 | 81 | 0.0 | 0.0 | 0.00 | 0.27 | 0.27 | 96 | 1015.8 |
| 20260904030610 | 72 | 82 | 0.0 | 0.0 | 0.00 | 0.27 | 0.27 | 96 | 1015.9 |
| 20260904030105 | 72 | 83 | 0.0 | 0.0 | 0.00 | 0.27 | 0.27 | 96 | 1015.8 |
| 20260904025601 | 72 | 117 | 1.0 | 1.0 | 0.00 | 0.27 | 0.27 | 96 | 1015.6 |
| 20260904025056 | 72 | 85 | 0.0 | 0.0 | 0.00 | 0.27 | 0.27 | 96 | 1015.9 |
| 20260904024551 | 72 | 80 | 0.0 | 0.0 | 0.00 | 0.27 | 0.27 | 95 | 1016.0 |
| 20260904024047 | 72 | 79 | 0.0 | 0.0 | 0.00 | 0.27 | 0.27 | 95 | 1015.9 |
| 20260904023543 | 72 | 76 | 0.0 | 0.0 | 0.00 | 0.27 | 0.27 | 95 | 1015.8 |
| 20260904023038 | 72 | 84 | 0.0 | 0.0 | 0.00 | 0.27 | 0.27 | 95 | 1015.8 |
| 20260904022533 | 72 | 80 | 0.0 | 0.0 | 0.00 | 0.27 | 0.27 | 95 | 1016.0 |
| 20260904022030 | 72 | 14 | 0.0 | 0.0 | 0.00 | 0.27 | 0.27 | 95 | 1015.8 |
| 20260904021525 | 72 | 80 | 0.0 | 0.0 | 0.00 | 0.27 | 0.27 | 94 | 1015.6 |
| 20260904021020 | 72 | 85 | 0.0 | 0.0 | 0.00 | 0.27 | 0.27 | 94 | 1015.9 |
| 20260904020521 | 72 | 83 | 0.0 | 0.0 | 0.00 | 0.27 | 0.27 | 94 | 1015.8 |
| 20260904020015 | 72 | 77 | 0.0 | 0.0 | 0.00 | 0.27 | 0.27 | 94 | 1015.6 |
| 20260904015510 | 72 | 74 | 0.0 | 0.0 | 0.00 | 0.27 | 0.27 | 94 | 1015.7 |
| 20260904015008 | 72 | 60 | 0.0 | 0.0 | 0.00 | 0.27 | 0.27 | 94 | 1015.6 |
| 20260904014503 | 72 | 74 | 0.0 | 0.0 | 0.00 | 0.27 | 0.27 | 94 | 1015.6 |
| 20260904013959 | 72 | 77 | 0.0 | 0.0 | 0.00 | 0.27 | 0.27 | 94 | 1015.3 |
| 20260904013455 | 72 | 45 | 0.0 | 1.0 | 0.00 | 0.27 | 0.27 | 94 | 1015.4 |
| 20260904012951 | 72 | 61 | 0.0 | 0.0 | 0.00 | 0.27 | 0.27 | 94 | 1015.4 |
| 20260904012450 | 72 | 56 | 0.0 | 0.0 | 0.00 | 0.27 | 0.27 | 94 | 1015.2 |
| 20260904011944 | 72 | 81 | 0.0 | 0.0 | 0.00 | 0.27 | 0.27 | 93 | 1015.1 |
| 20260904011440 | 72 | 77 | 0.0 | 0.0 | 0.00 | 0.27 | 0.27 | 93 | 1015.1 |
| 20260904010935 | 72 | 82 | 0.0 | 0.0 | 0.00 | 0.27 | 0.27 | 93 | 1014.9 |
| 20260904010431 | 72 | 83 | 0.0 | 0.0 | 0.00 | 0.27 | 0.27 | 93 | 1014.8 |
| 20260904005925 | 72 | 79 | 0.0 | 0.0 | 0.00 | 0.27 | 0.27 | 92 | 1014.9 |
| 20260904005416 | 73 | 81 | 0.0 | 0.0 | 0.00 | 0.27 | 0.27 | 92 | 1014.7 |
| 20260904004916 | 73 | 81 | 0.0 | 0.0 | 0.00 | 0.27 | 0.27 | 92 | 1014.5 |
| 20260904004413 | 73 | 83 | 0.0 | 0.0 | 0.00 | 0.27 | 0.27 | 92 | 1014.5 |
| 20260904003912 | 73 | 85 | 0.0 | 1.0 | 0.00 | 0.27 | 0.27 | 91 | 1014.3 |
| 20260904003403 | 73 | 81 | 0.0 | 0.0 | 0.00 | 0.27 | 0.27 | 91 | 1014.5 |
| 20260904002857 | 73 | 81 | 0.0 | 0.0 | 0.00 | 0.27 | 0.27 | 90 | 1014.3 |
| 20260904002354 | 74 | 84 | 0.0 | 0.0 | 0.00 | 0.27 | 0.27 | 90 | 1014.7 |
| 20260904001853 | 74 | 83 | 1.0 | 1.0 | 0.00 | 0.27 | 0.27 | 90 | 1014.7 |
| 20260904001349 | 74 | 84 | 0.0 | 1.0 | 0.00 | 0.27 | 0.27 | 89 | 1014.6 |
| 20260904000843 | 74 | 63 | 1.0 | 1.0 | 0.00 | 0.27 | 0.27 | 89 | 1014.6 |
| 20260904000343 | 74 | 75 | 0.0 | 0.0 | 0.00 | 0.27 | 0.27 | 89 | 1014.5 |
| 20260903235843 | 75 | 81 | 0.0 | 0.0 | 0.00 | 0.27 | 0.27 | 89 | 1014.4 |
| 20260903235339 | 75 | 80 | 0.0 | 0.0 | 0.00 | 0.27 | 0.27 | 88 | 1014.6 |
| 20260903234838 | 75 | 79 | 1.0 | 1.0 | 0.00 | 0.27 | 0.27 | 88 | 1014.5 |
| 20260903234335 | 75 | 81 | 1.0 | 1.0 | 0.00 | 0.27 | 0.27 | 88 | 1014.4 |
| 20260903233831 | 75 | 76 | 0.0 | 0.0 | 0.00 | 0.27 | 0.27 | 88 | 1014.6 |
| 20260903233326 | 75 | 80 | 0.0 | 0.0 | 0.00 | 0.27 | 0.27 | 87 | 1014.7 |
| 20260903232826 | 75 | 83 | 1.0 | 1.0 | 0.00 | 0.27 | 0.27 | 87 | 1014.4 |
| 20260903232321 | 75 | 138 | 1.0 | 2.0 | 0.00 | 0.27 | 0.27 | 87 | 1014.6 |
| 20260903231820 | 75 | 79 | 0.0 | 0.0 | 0.00 | 0.27 | 0.27 | 87 | 1014.3 |
| 20260903231316 | 75 | 84 | 0.0 | 0.0 | 0.00 | 0.27 | 0.27 | 86 | 1014.4 |
| 20260903230811 | 76 | 100 | 1.0 | 1.0 | 0.00 | 0.27 | 0.27 | 85 | 1014.6 |
| 20260903230306 | 76 | 78 | 0.0 | 1.0 | 0.00 | 0.27 | 0.27 | 84 | 1014.5 |
| 20260903225802 | 76 | 79 | 1.0 | 1.0 | 0.00 | 0.27 | 0.27 | 84 | 1014.7 |
| 20260903225258 | 76 | 78 | 2.0 | 2.0 | 0.00 | 0.27 | 0.27 | 84 | 1014.7 |
| 20260903224755 | 76 | 88 | 1.0 | 1.0 | 0.00 | 0.27 | 0.27 | 84 | 1014.5 |
| 20260903224250 | 76 | 69 | 1.0 | 1.0 | 0.00 | 0.27 | 0.27 | 85 | 1014.6 |
| 20260903223746 | 76 | 78 | 0.0 | 1.0 | 0.00 | 0.27 | 0.27 | 86 | 1014.7 |
| 20260903223244 | 76 | 79 | 0.0 | 0.0 | 0.00 | 0.27 | 0.27 | 86 | 1014.7 |
| 20260903222739 | 76 | 67 | 1.0 | 2.0 | 0.00 | 0.27 | 0.27 | 86 | 1014.4 |
| 20260903222238 | 77 | 81 | 2.0 | 2.0 | 0.00 | 0.27 | 0.27 | 85 | 1014.7 |
| 20260903221733 | 76 | 101 | 2.0 | 2.0 | 0.00 | 0.27 | 0.27 | 84 | 1014.6 |
| 20260903221232 | 76 | 71 | 2.0 | 2.0 | 0.00 | 0.27 | 0.27 | 83 | 1014.5 |
| 20260903220730 | 77 | 72 | 1.0 | 2.0 | 0.00 | 0.27 | 0.27 | 84 | 1014.7 |
| 20260903220225 | 77 | 114 | 2.0 | 3.0 | 0.00 | 0.27 | 0.27 | 84 | 1014.9 |
| 20260903215718 | 77 | 71 | 1.0 | 2.0 | 0.00 | 0.27 | 0.27 | 83 | 1014.7 |
| 20260903215214 | 76 | 74 | 0.0 | 1.0 | 0.00 | 0.27 | 0.27 | 84 | 1014.7 |
| 20260903214712 | 76 | 67 | 1.0 | 1.0 | 0.00 | 0.27 | 0.27 | 84 | 1014.6 |
| 20260903214209 | 76 | 46 | 3.0 | 6.0 | 0.00 | 0.27 | 0.27 | 83 | 1014.7 |
| 20260903213703 | 77 | 53 | 2.0 | 2.0 | 0.00 | 0.27 | 0.27 | 83 | 1014.5 |
| 20260903213158 | 77 | 86 | 1.0 | 2.0 | 0.00 | 0.27 | 0.27 | 83 | 1014.5 |
| 20260903212654 | 76 | 88 | 3.0 | 3.0 | 0.00 | 0.27 | 0.27 | 83 | 1014.5 |
| 20260903212150 | 76 | 69 | 1.0 | 2.0 | 0.00 | 0.27 | 0.27 | 82 | 1014.7 |
| 20260903211644 | 76 | 53 | 1.0 | 1.0 | 0.00 | 0.27 | 0.27 | 82 | 1014.7 |
| 20260903211141 | 77 | 74 | 1.0 | 1.0 | 0.00 | 0.27 | 0.27 | 82 | 1014.6 |
| 20260903210636 | 76 | 88 | 3.0 | 5.0 | 0.00 | 0.27 | 0.27 | 82 | 1014.7 |
| 20260903210132 | 76 | 75 | 3.0 | 3.0 | 0.00 | 0.27 | 0.27 | 83 | 1014.7 |
| 20260903205630 | 76 | 35 | 2.0 | 2.0 | 0.00 | 0.27 | 0.27 | 83 | 1014.8 |
| 20260903205125 | 76 | 22 | 2.0 | 2.0 | 0.00 | 0.27 | 0.27 | 85 | 1014.7 |
| 20260903204621 | 75 | 62 | 1.0 | 2.0 | 0.00 | 0.27 | 0.27 | 86 | 1014.8 |
| 20260903204116 | 75 | 40 | 3.0 | 5.0 | 0.00 | 0.27 | 0.27 | 86 | 1015.0 |
| 20260903203612 | 76 | 69 | 2.0 | 2.0 | 0.00 | 0.27 | 0.27 | 87 | 1015.0 |
| 20260903203112 | 80 | 21 | 4.0 | 6.0 | 0.00 | 0.27 | 0.27 | 86 | 1014.6 |
| 20260903202608 | 79 | 60 | 2.0 | 2.0 | 0.00 | 0.27 | 0.27 | 89 | 1014.9 |
| 20260903202102 | 79 | 77 | 1.0 | 1.0 | 0.00 | 0.27 | 0.27 | 89 | 1014.9 |
| 20260903201551 | 79 | 92 | 0.0 | 0.0 | 0.00 | 0.27 | 0.27 | 90 | 1014.8 |
| 20260903201050 | 79 | 71 | 0.0 | 1.0 | 0.00 | 0.27 | 0.27 | 90 | 1014.6 |
| 20260903200546 | 78 | 85 | 0.0 | 1.0 | 0.00 | 0.27 | 0.27 | 90 | 1014.4 |
| 20260903200041 | 78 | 90 | 0.0 | 1.0 | 0.00 | 0.27 | 0.27 | 90 | 1014.4 |
| 20260903195537 | 78 | 134 | 0.0 | 1.0 | 0.00 | 0.27 | 0.27 | 90 | 1014.7 |
| 20260903195032 | 78 | 75 | 0.0 | 0.0 | 0.00 | 0.27 | 0.27 | 91 | 1014.4 |
| 20260903194528 | 78 | 90 | 1.0 | 1.0 | 0.00 | 0.27 | 0.27 | 91 | 1014.4 |
| 20260903194022 | 78 | 78 | 0.0 | 0.0 | 0.00 | 0.27 | 0.27 | 91 | 1014.8 |
| 20260903193519 | 78 | 78 | 0.0 | 0.0 | 0.00 | 0.27 | 0.27 | 90 | 1014.7 |
| 20260903193014 | 78 | 80 | 0.0 | 0.0 | 0.00 | 0.27 | 0.27 | 89 | 1014.8 |
| 20260903192510 | 79 | 79 | 0.0 | 0.0 | 0.00 | 0.27 | 0.27 | 90 | 1014.7 |
| 20260903192005 | 79 | 96 | 0.0 | 1.0 | 0.00 | 0.27 | 0.27 | 89 | 1014.9 |
| 20260903191501 | 79 | 90 | 0.0 | 1.0 | 0.00 | 0.27 | 0.27 | 88 | 1014.7 |
| 20260903191000 | 79 | 60 | 0.0 | 1.0 | 0.00 | 0.27 | 0.27 | 89 | 1015.0 |
| 20260903190455 | 78 | 75 | 0.0 | 0.0 | 0.00 | 0.27 | 0.27 | 90 | 1015.0 |
| 20260903185949 | 78 | 75 | 0.0 | 0.0 | 0.00 | 0.27 | 0.27 | 90 | 1014.9 |
| 20260903185445 | 77 | 79 | 1.0 | 1.0 | 0.00 | 0.27 | 0.27 | 91 | 1015.1 |
| 20260903184944 | 76 | 56 | 1.0 | 1.0 | 0.00 | 0.27 | 0.27 | 92 | 1014.7 |
| 20260903184442 | 76 | 127 | 0.0 | 0.0 | 0.00 | 0.27 | 0.27 | 94 | 1014.7 |
| 20260903183936 | 75 | 82 | 1.0 | 2.0 | 0.00 | 0.27 | 0.27 | 96 | 1014.6 |
| 20260903183431 | 74 | 90 | 0.0 | 0.0 | 0.00 | 0.27 | 0.27 | 97 | 1014.9 |
| 20260903182930 | 74 | 77 | 0.0 | 0.0 | 0.00 | 0.27 | 0.27 | 97 | 1014.8 |
| 20260903182429 | 74 | 19 | 2.0 | 2.0 | 0.00 | 0.27 | 0.27 | 97 | 1015.2 |
| 20260903181925 | 74 | 68 | 1.0 | 1.0 | 0.00 | 0.27 | 0.27 | 97 | 1015.6 |
| 20260903181419 | 73 | 82 | 0.0 | 0.0 | 0.00 | 0.27 | 0.27 | 97 | 1015.1 |
| 20260903180918 | 73 | 73 | 0.0 | 0.0 | 0.00 | 0.27 | 0.27 | 97 | 1015.1 |
| 20260903180413 | 73 | 70 | 0.0 | 0.0 | 0.00 | 0.27 | 0.27 | 97 | 1014.9 |
| 20260903175912 | 73 | 81 | 0.0 | 0.0 | 0.00 | 0.27 | 0.27 | 97 | 1015.1 |
| 20260903175407 | 73 | 99 | 1.0 | 1.0 | 0.00 | 0.27 | 0.27 | 97 | 1015.2 |
| 20260903174901 | 72 | 79 | 0.0 | 0.0 | 0.07 | 0.27 | 0.27 | 97 | 1014.9 |
| 20260903174357 | 72 | 78 | 1.0 | 1.0 | 0.47 | 0.27 | 0.27 | 97 | 1015.2 |
| 20260903173856 | 73 | 64 | 1.0 | 1.0 | 0.47 | 0.27 | 0.27 | 97 | 1015.8 |
| 20260903173352 | 72 | 315 | 2.0 | 2.0 | 0.00 | 0.19 | 0.19 | 97 | 1014.6 |
| 20260903172848 | 72 | 78 | 1.0 | 1.0 | 0.00 | 0.19 | 0.19 | 97 | 1014.1 |
| 20260903172342 | 71 | 78 | 2.0 | 2.0 | 0.00 | 0.19 | 0.19 | 97 | 1014.5 |
| 20260903171838 | 71 | 126 | 2.0 | 2.0 | 0.07 | 0.19 | 0.19 | 97 | 1014.9 |
| 20260903171333 | 71 | 79 | 1.0 | 1.0 | 0.19 | 0.19 | 0.19 | 97 | 1016.2 |
| 20260903170832 | 71 | 97 | 0.0 | 0.0 | 0.19 | 0.18 | 0.18 | 97 | 1016.5 |
| 20260903170328 | 71 | 82 | 0.0 | 0.0 | 0.07 | 0.16 | 0.16 | 97 | 1016.7 |
| 20260903165826 | 70 | 88 | 0.0 | 0.0 | 0.05 | 0.15 | 0.15 | 97 | 1016.9 |
| 20260903165325 | 70 | 135 | 0.0 | 0.0 | 0.05 | 0.15 | 0.15 | 97 | 1017.0 |
| 20260903164820 | 70 | 145 | 0.0 | 0.0 | 0.00 | 0.14 | 0.14 | 96 | 1017.3 |
| 20260903164316 | 70 | 76 | 0.0 | 0.0 | 0.00 | 0.14 | 0.14 | 96 | 1017.8 |
| 20260903163815 | 70 | 117 | 1.0 | 2.0 | 0.07 | 0.14 | 0.14 | 96 | 1018.0 |
| 20260903163312 | 70 | 92 | 0.0 | 1.0 | 0.19 | 0.14 | 0.14 | 96 | 1018.2 |
| 20260903162807 | 70 | 183 | 3.0 | 5.0 | 0.17 | 0.13 | 0.13 | 95 | 1018.2 |
| 20260903162306 | 70 | 171 | 1.0 | 1.0 | 0.17 | 0.11 | 0.11 | 95 | 1018.3 |
| 20260903161759 | 70 | 99 | 1.0 | 2.0 | 0.24 | 0.10 | 0.10 | 94 | 1017.9 |
| 20260903161254 | 71 | 84 | 2.0 | 2.0 | 0.31 | 0.08 | 0.08 | 94 | 1017.9 |
| 20260903160750 | 71 | 303 | 4.0 | 5.0 | 0.35 | 0.07 | 0.07 | 93 | 1017.6 |
| 20260903160249 | 71 | 19 | 1.0 | 1.0 | 0.19 | 0.03 | 0.03 | 92 | 1017.2 |
| 20260903155747 | 71 | 189 | 3.0 | 5.0 | 0.07 | 0.01 | 0.01 | 91 | 1017.7 |
| 20260903155243 | 71 | 271 | 4.0 | 7.0 | 0.00 | 0.00 | 0.00 | 90 | 1017.4 |
| 20260903154738 | 72 | 309 | 4.0 | 7.0 | 0.00 | 0.00 | 0.00 | 89 | 1017.0 |
| 20260903154234 | 72 | 263 | 3.0 | 5.0 | 0.00 | 0.00 | 0.00 | 88 | 1016.8 |
| 20260903153729 | 73 | 112 | 2.0 | 3.0 | 0.00 | 0.00 | 0.00 | 86 | 1016.3 |
| 20260903153225 | 75 | 297 | 8.0 | 10.0 | 0.00 | 0.00 | 0.00 | 84 | 1016.1 |
| 20260903152721 | 76 | 332 | 4.0 | 6.0 | 0.00 | 0.00 | 0.00 | 81 | 1016.4 |
| 20260903152217 | 76 | 314 | 3.0 | 5.0 | 0.00 | 0.00 | 0.00 | 78 | 1016.4 |
| 20260903151717 | 75 | 41 | 4.0 | 7.0 | 0.00 | 0.00 | 0.00 | 76 | 1016.7 |
| 20260903151212 | 75 | 31 | 3.0 | 5.0 | 0.00 | 0.00 | 0.00 | 75 | 1016.2 |
| 20260903150707 | 75 | 47 | 3.0 | 3.0 | 0.00 | 0.00 | 0.00 | 74 | 1016.1 |
| 20260903150202 | 75 | 55 | 1.0 | 2.0 | 0.00 | 0.00 | 0.00 | 73 | 1016.2 |
| 20260903145702 | 76 | 69 | 3.0 | 5.0 | 0.00 | 0.00 | 0.00 | 71 | 1015.9 |
| 20260903145157 | 76 | 327 | 2.0 | 3.0 | 0.00 | 0.00 | 0.00 | 71 | 1015.7 |
| 20260903144656 | 75 | 73 | 1.0 | 1.0 | 0.00 | 0.00 | 0.00 | 73 | 1015.7 |
| 20260903144152 | 76 | 0 | 5.0 | 8.0 | 0.00 | 0.00 | 0.00 | 71 | 1016.0 |
| 20260903143648 | 76 | 323 | 5.0 | 6.0 | 0.00 | 0.00 | 0.00 | 69 | 1015.7 |
| 20260903143143 | 74 | 9 | 6.0 | 8.0 | 0.00 | 0.00 | 0.00 | 69 | 1015.6 |
| 20260903142639 | 74 | 40 | 1.0 | 2.0 | 0.00 | 0.00 | 0.00 | 75 | 1016.0 |
| 20260903142136 | 74 | 336 | 3.0 | 5.0 | 0.00 | 0.00 | 0.00 | 73 | 1016.0 |
| 20260903141631 | 74 | 346 | 6.0 | 14.0 | 0.00 | 0.00 | 0.00 | 73 | 1016.0 |
| 20260903141125 | 75 | 33 | 4.0 | 6.0 | 0.00 | 0.00 | 0.00 | 74 | 1016.3 |
| 20260903140622 | 76 | 345 | 6.0 | 9.0 | 0.00 | 0.00 | 0.00 | 73 | 1016.1 |
| 20260903140117 | 74 | 52 | 3.0 | 3.0 | 0.00 | 0.00 | 0.00 | 78 | 1015.8 |
| 20260903135613 | 75 | 33 | 7.0 | 13.0 | 0.00 | 0.00 | 0.00 | 79 | 1015.9 |
| 20260903135112 | 74 | 17 | 4.0 | 6.0 | 0.00 | 0.00 | 0.00 | 83 | 1016.0 |
| 20260903134611 | 75 | 3 | 7.0 | 10.0 | 0.00 | 0.00 | 0.00 | 83 | 1016.0 |
| 20260903134107 | 75 | 76 | 5.0 | 8.0 | 0.00 | 0.00 | 0.00 | 83 | 1016.3 |
| 20260903133605 | 76 | 50 | 3.0 | 6.0 | 0.00 | 0.00 | 0.00 | 83 | 1016.3 |
| 20260903133101 | 76 | 15 | 3.0 | 3.0 | 0.00 | 0.00 | 0.00 | 84 | 1016.0 |
| 20260903132556 | 76 | 40 | 4.0 | 7.0 | 0.00 | 0.00 | 0.00 | 88 | 1016.0 |
| 20260903132050 | 77 | 287 | 4.0 | 6.0 | 0.00 | 0.00 | 0.00 | 91 | 1015.7 |
| 20260903131550 | 77 | 26 | 1.0 | 1.0 | 0.00 | 0.00 | 0.00 | 91 | 1014.7 |
| 20260903131044 | 77 | 77 | 0.0 | 0.0 | 0.00 | 0.00 | 0.00 | 91 | 1014.2 |
| 20260903130544 | 77 | 135 | 0.0 | 0.0 | 0.00 | 0.00 | 0.00 | 91 | 1014.3 |
| 20260903130039 | 77 | 80 | 0.0 | 0.0 | 0.00 | 0.00 | 0.00 | 91 | 1014.3 |
| 20260903125537 | 76 | 143 | 1.0 | 1.0 | 0.00 | 0.00 | 0.00 | 92 | 1014.2 |
| 20260903125033 | 76 | 91 | 0.0 | 1.0 | 0.00 | 0.00 | 0.00 | 94 | 1014.1 |
| 20260903124532 | 75 | 73 | 0.0 | 0.0 | 0.00 | 0.00 | 0.00 | 95 | 1014.1 |
| 20260903124027 | 75 | 83 | 0.0 | 0.0 | 0.00 | 0.00 | 0.00 | 96 | 1014.0 |
| 20260903123521 | 74 | 78 | 0.0 | 0.0 | 0.00 | 0.00 | 0.00 | 97 | 1013.9 |
| 20260903123020 | 74 | 91 | 0.0 | 1.0 | 0.00 | 0.00 | 0.00 | 97 | 1014.0 |
| 20260903122520 | 74 | 102 | 0.0 | 0.0 | 0.00 | 0.00 | 0.00 | 98 | 1014.1 |
| 20260903122019 | 74 | 92 | 0.0 | 0.0 | 0.00 | 0.00 | 0.00 | 98 | 1014.1 |
| 20260903121514 | 73 | 88 | 0.0 | 0.0 | 0.00 | 0.00 | 0.00 | 98 | 1014.2 |
| 20260903121010 | 73 | 90 | 0.0 | 0.0 | 0.00 | 0.00 | 0.00 | 98 | 1014.2 |
| 20260903120508 | 73 | 85 | 0.0 | 0.0 | 0.00 | 0.00 | 0.00 | 98 | 1014.2 |
| 20260903120003 | 73 | 102 | 0.0 | 0.0 | 0.00 | 0.00 | 0.00 | 98 | 1014.4 |
| 20260903115501 | 72 | 92 | 0.0 | 0.0 | 0.00 | 0.00 | 0.00 | 98 | 1014.3 |
| 20260903114956 | 72 | 91 | 0.0 | 0.0 | 0.00 | 0.00 | 0.00 | 98 | 1014.2 |
| 20260903114452 | 72 | 86 | 0.0 | 0.0 | 0.00 | 0.00 | 0.00 | 98 | 1014.2 |
| 20260903113947 | 72 | 85 | 0.0 | 0.0 | 0.00 | 0.00 | 0.00 | 98 | 1014.3 |
| 20260903113442 | 72 | 81 | 0.0 | 0.0 | 0.00 | 0.00 | 0.00 | 98 | 1014.4 |
| 20260903112938 | 72 | 81 | 0.0 | 0.0 | 0.00 | 0.00 | 0.00 | 98 | 1014.4 |
| 20260903112434 | 71 | 81 | 0.0 | 0.0 | 0.00 | 0.00 | 0.00 | 98 | 1014.4 |